Year,Month,Day,Hour,Minute,Value (Times are PST for temperature in C)
2016,10,17,00,00,9.60
2016,10,17,00,01,9.60
2016,10,17,00,02,9.60
2016,10,17,00,03,9.60
2016,10,17,00,04,9.60
2016,10,17,00,05,9.60
2016,10,17,00,06,9.60
2016,10,17,00,07,9.50
2016,10,17,00,08,9.50
2016,10,17,00,09,9.50
2016,10,17,00,10,9.50
2016,10,17,00,11,9.50
2016,10,17,00,12,9.50
2016,10,17,00,13,9.50
2016,10,17,00,14,9.50
2016,10,17,00,15,9.50
2016,10,17,00,16,9.50
2016,10,17,00,17,9.50
2016,10,17,00,18,9.50
2016,10,17,00,19,9.40
2016,10,17,00,20,9.40
2016,10,17,00,21,9.40
2016,10,17,00,22,9.40
2016,10,17,00,23,9.40
2016,10,17,00,24,9.40
2016,10,17,00,25,9.40
2016,10,17,00,26,9.40
2016,10,17,00,27,9.40
2016,10,17,00,28,9.40
2016,10,17,00,29,9.40
2016,10,17,00,30,9.40
2016,10,17,00,31,9.40
2016,10,17,00,32,9.40
2016,10,17,00,33,9.40
2016,10,17,00,34,9.40
2016,10,17,00,35,9.30
2016,10,17,00,36,9.30
2016,10,17,00,37,9.30
2016,10,17,00,38,9.30
2016,10,17,00,39,9.30
2016,10,17,00,40,9.30
2016,10,17,00,41,9.30
2016,10,17,00,42,9.30
2016,10,17,00,43,9.30
2016,10,17,00,44,9.30
2016,10,17,00,45,9.30
2016,10,17,00,46,9.30
2016,10,17,00,47,9.30
2016,10,17,00,48,9.20
2016,10,17,00,49,9.20
2016,10,17,00,50,9.20
2016,10,17,00,51,9.20
2016,10,17,00,52,9.20
2016,10,17,00,53,9.20
2016,10,17,00,54,9.20
2016,10,17,00,55,9.20
2016,10,17,00,56,9.20
2016,10,17,00,57,9.20
2016,10,17,00,58,9.20
2016,10,17,00,59,9.20
2016,10,17,01,00,9.20
2016,10,17,01,01,9.20
2016,10,17,01,02,9.20
2016,10,17,01,03,9.20
2016,10,17,01,04,9.20
2016,10,17,01,05,9.20
2016,10,17,01,06,9.20
2016,10,17,01,07,9.20
2016,10,17,01,08,9.20
2016,10,17,01,09,9.20
2016,10,17,01,10,9.20
2016,10,17,01,11,9.20
2016,10,17,01,12,9.20
2016,10,17,01,13,9.20
2016,10,17,01,14,9.20
2016,10,17,01,15,9.20
2016,10,17,01,16,9.20
2016,10,17,01,17,9.20
2016,10,17,01,18,9.20
2016,10,17,01,19,9.20
2016,10,17,01,20,9.20
2016,10,17,01,21,9.10
2016,10,17,01,22,9.10
2016,10,17,01,23,9.10
2016,10,17,01,24,9.10
2016,10,17,01,25,9.10
2016,10,17,01,26,9.10
2016,10,17,01,27,9.10
2016,10,17,01,28,9.10
2016,10,17,01,29,9.10
2016,10,17,01,30,9.10
2016,10,17,01,31,9.10
2016,10,17,01,32,9.10
2016,10,17,01,33,9.10
2016,10,17,01,34,9.10
2016,10,17,01,35,9.10
2016,10,17,01,36,9.10
2016,10,17,01,37,9.10
2016,10,17,01,38,9.10
2016,10,17,01,39,9.10
2016,10,17,01,40,9.20
2016,10,17,01,41,9.20
2016,10,17,01,42,9.20
2016,10,17,01,43,9.20
2016,10,17,01,44,9.20
2016,10,17,01,45,9.20
2016,10,17,01,46,9.20
2016,10,17,01,47,9.20
2016,10,17,01,48,9.20
2016,10,17,01,49,9.20
2016,10,17,01,50,9.20
2016,10,17,01,51,9.20
2016,10,17,01,52,9.20
2016,10,17,01,53,9.20
2016,10,17,01,54,9.20
2016,10,17,01,55,9.20
2016,10,17,01,56,9.20
2016,10,17,01,57,9.20
2016,10,17,01,58,9.20
2016,10,17,01,59,9.20
2016,10,17,02,00,9.20
2016,10,17,02,01,9.20
2016,10,17,02,02,9.20
2016,10,17,02,03,9.20
2016,10,17,02,04,9.20
2016,10,17,02,05,9.20
2016,10,17,02,06,9.20
2016,10,17,02,07,9.20
2016,10,17,02,08,9.20
2016,10,17,02,09,9.20
2016,10,17,02,10,9.20
2016,10,17,02,11,9.20
2016,10,17,02,12,9.20
2016,10,17,02,13,9.20
2016,10,17,02,14,9.20
2016,10,17,02,15,9.20
2016,10,17,02,16,9.20
2016,10,17,02,17,9.20
2016,10,17,02,18,9.20
2016,10,17,02,19,9.20
2016,10,17,02,20,9.20
2016,10,17,02,21,9.20
2016,10,17,02,22,9.20
2016,10,17,02,23,9.30
2016,10,17,02,24,9.30
2016,10,17,02,25,9.30
2016,10,17,02,26,9.30
2016,10,17,02,27,9.30
2016,10,17,02,28,9.30
2016,10,17,02,29,9.30
2016,10,17,02,30,9.30
2016,10,17,02,31,9.30
2016,10,17,02,32,9.20
2016,10,17,02,33,9.20
2016,10,17,02,34,9.30
2016,10,17,02,35,9.30
2016,10,17,02,36,9.20
2016,10,17,02,37,9.20
2016,10,17,02,38,9.20
2016,10,17,02,39,9.20
2016,10,17,02,40,9.20
2016,10,17,02,41,9.20
2016,10,17,02,42,9.20
2016,10,17,02,43,9.20
2016,10,17,02,44,9.20
2016,10,17,02,45,9.20
2016,10,17,02,46,9.20
2016,10,17,02,47,9.20
2016,10,17,02,48,9.20
2016,10,17,02,49,9.20
2016,10,17,02,50,9.20
2016,10,17,02,51,9.20
2016,10,17,02,52,9.20
2016,10,17,02,53,9.20
2016,10,17,02,54,9.20
2016,10,17,02,55,9.20
2016,10,17,02,56,9.20
2016,10,17,02,57,9.20
2016,10,17,02,58,9.20
2016,10,17,02,59,9.20
2016,10,17,03,00,9.20
2016,10,17,03,01,9.20
2016,10,17,03,02,9.20
2016,10,17,03,03,9.20
2016,10,17,03,04,9.20
2016,10,17,03,05,9.20
2016,10,17,03,06,9.20
2016,10,17,03,07,9.20
2016,10,17,03,08,9.20
2016,10,17,03,09,9.20
2016,10,17,03,10,9.20
2016,10,17,03,11,9.20
2016,10,17,03,12,9.20
2016,10,17,03,13,9.20
2016,10,17,03,14,9.20
2016,10,17,03,15,9.20
2016,10,17,03,16,9.20
2016,10,17,03,17,9.20
2016,10,17,03,18,9.20
2016,10,17,03,19,9.20
2016,10,17,03,20,9.20
2016,10,17,03,21,9.20
2016,10,17,03,22,9.20
2016,10,17,03,23,9.20
2016,10,17,03,24,9.20
2016,10,17,03,25,9.20
2016,10,17,03,26,9.20
2016,10,17,03,27,9.20
2016,10,17,03,28,9.20
2016,10,17,03,29,9.20
2016,10,17,03,30,9.20
2016,10,17,03,31,9.20
2016,10,17,03,32,9.20
2016,10,17,03,33,9.20
2016,10,17,03,34,9.20
2016,10,17,03,35,9.20
2016,10,17,03,36,9.20
2016,10,17,03,37,9.20
2016,10,17,03,38,9.20
2016,10,17,03,39,9.20
2016,10,17,03,40,9.20
2016,10,17,03,41,9.20
2016,10,17,03,42,9.20
2016,10,17,03,43,9.20
2016,10,17,03,44,9.20
2016,10,17,03,45,9.20
2016,10,17,03,46,9.20
2016,10,17,03,47,9.20
2016,10,17,03,48,9.20
2016,10,17,03,49,9.20
2016,10,17,03,50,9.20
2016,10,17,03,51,9.20
2016,10,17,03,52,9.20
2016,10,17,03,53,9.20
2016,10,17,03,54,9.20
2016,10,17,03,55,9.20
2016,10,17,03,56,9.20
2016,10,17,03,57,9.20
2016,10,17,03,58,9.20
2016,10,17,03,59,9.20
2016,10,17,04,00,9.20
2016,10,17,04,01,9.20
2016,10,17,04,02,9.20
2016,10,17,04,03,9.20
2016,10,17,04,04,9.20
2016,10,17,04,05,9.20
2016,10,17,04,06,9.20
2016,10,17,04,07,9.20
2016,10,17,04,08,9.20
2016,10,17,04,09,9.20
2016,10,17,04,10,9.20
2016,10,17,04,11,9.20
2016,10,17,04,12,9.20
2016,10,17,04,13,9.20
2016,10,17,04,14,9.20
2016,10,17,04,15,9.20
2016,10,17,04,16,9.20
2016,10,17,04,17,9.20
2016,10,17,04,18,9.20
2016,10,17,04,19,9.20
2016,10,17,04,20,9.20
2016,10,17,04,21,9.20
2016,10,17,04,22,9.20
2016,10,17,04,23,9.20
2016,10,17,04,24,9.20
2016,10,17,04,25,9.20
2016,10,17,04,26,9.20
2016,10,17,04,27,9.20
2016,10,17,04,28,9.20
2016,10,17,04,29,9.20
2016,10,17,04,30,9.20
2016,10,17,04,31,9.20
2016,10,17,04,32,9.20
2016,10,17,04,33,9.20
2016,10,17,04,34,9.20
2016,10,17,04,35,9.20
2016,10,17,04,36,9.20
2016,10,17,04,37,9.20
2016,10,17,04,38,9.20
2016,10,17,04,39,9.20
2016,10,17,04,40,9.20
2016,10,17,04,41,9.20
2016,10,17,04,42,9.20
2016,10,17,04,43,9.20
2016,10,17,04,44,9.20
2016,10,17,04,45,9.20
2016,10,17,04,46,9.20
2016,10,17,04,47,9.20
2016,10,17,04,48,9.20
2016,10,17,04,49,9.20
2016,10,17,04,50,9.20
2016,10,17,04,51,9.20
2016,10,17,04,52,9.20
2016,10,17,04,53,9.20
2016,10,17,04,54,9.20
2016,10,17,04,55,9.20
2016,10,17,04,56,9.20
2016,10,17,04,57,9.20
2016,10,17,04,58,9.20
2016,10,17,04,59,9.20
2016,10,17,05,00,9.20
2016,10,17,05,01,9.20
2016,10,17,05,02,9.20
2016,10,17,05,03,9.20
2016,10,17,05,04,9.20
2016,10,17,05,05,9.20
2016,10,17,05,06,9.20
2016,10,17,05,07,9.20
2016,10,17,05,08,9.20
2016,10,17,05,09,9.20
2016,10,17,05,10,9.20
2016,10,17,05,11,9.20
2016,10,17,05,12,9.20
2016,10,17,05,13,9.20
2016,10,17,05,14,9.20
2016,10,17,05,15,9.20
2016,10,17,05,16,9.20
2016,10,17,05,17,9.20
2016,10,17,05,18,9.20
2016,10,17,05,19,9.20
2016,10,17,05,20,9.20
2016,10,17,05,21,9.20
2016,10,17,05,22,9.20
2016,10,17,05,23,9.20
2016,10,17,05,24,9.20
2016,10,17,05,25,9.20
2016,10,17,05,26,9.20
2016,10,17,05,27,9.20
2016,10,17,05,28,9.20
2016,10,17,05,29,9.20
2016,10,17,05,30,9.20
2016,10,17,05,31,9.20
2016,10,17,05,32,9.20
2016,10,17,05,33,9.20
2016,10,17,05,34,9.20
2016,10,17,05,35,9.20
2016,10,17,05,36,9.20
2016,10,17,05,37,9.20
2016,10,17,05,38,9.20
2016,10,17,05,39,9.20
2016,10,17,05,40,9.20
2016,10,17,05,41,9.20
2016,10,17,05,42,9.20
2016,10,17,05,43,9.20
2016,10,17,05,44,9.20
2016,10,17,05,45,9.20
2016,10,17,05,46,9.20
2016,10,17,05,47,9.20
2016,10,17,05,48,9.20
2016,10,17,05,49,9.20
2016,10,17,05,50,9.20
2016,10,17,05,51,9.20
2016,10,17,05,52,9.20
2016,10,17,05,53,9.20
2016,10,17,05,54,9.20
2016,10,17,05,55,9.20
2016,10,17,05,56,9.20
2016,10,17,05,57,9.20
2016,10,17,05,58,9.20
2016,10,17,05,59,9.20
2016,10,17,06,00,9.20
2016,10,17,06,01,9.20
2016,10,17,06,02,9.20
2016,10,17,06,03,9.20
2016,10,17,06,04,9.20
2016,10,17,06,05,9.20
2016,10,17,06,06,9.20
2016,10,17,06,07,9.20
2016,10,17,06,08,9.20
2016,10,17,06,09,9.20
2016,10,17,06,10,9.20
2016,10,17,06,11,9.20
2016,10,17,06,12,9.20
2016,10,17,06,13,9.20
2016,10,17,06,14,9.20
2016,10,17,06,15,9.20
2016,10,17,06,16,9.20
2016,10,17,06,17,9.20
2016,10,17,06,18,9.20
2016,10,17,06,19,9.20
2016,10,17,06,20,9.20
2016,10,17,06,21,9.20
2016,10,17,06,22,9.20
2016,10,17,06,23,9.20
2016,10,17,06,24,9.20
2016,10,17,06,25,9.20
2016,10,17,06,26,9.20
2016,10,17,06,27,9.20
2016,10,17,06,28,9.20
2016,10,17,06,29,9.20
2016,10,17,06,30,9.20
2016,10,17,06,31,9.20
2016,10,17,06,32,9.20
2016,10,17,06,33,9.20
2016,10,17,06,34,9.20
2016,10,17,06,35,9.20
2016,10,17,06,36,9.20
2016,10,17,06,37,9.20
2016,10,17,06,38,9.20
2016,10,17,06,39,9.20
2016,10,17,06,40,9.20
2016,10,17,06,41,9.20
2016,10,17,06,42,9.20
2016,10,17,06,43,9.20
2016,10,17,06,44,9.20
2016,10,17,06,45,9.20
2016,10,17,06,46,9.20
2016,10,17,06,47,9.20
2016,10,17,06,48,9.20
2016,10,17,06,49,9.20
2016,10,17,06,50,9.20
2016,10,17,06,51,9.20
2016,10,17,06,52,9.20
2016,10,17,06,53,9.20
2016,10,17,06,54,9.20
2016,10,17,06,55,9.20
2016,10,17,06,56,9.20
2016,10,17,06,57,9.20
2016,10,17,06,58,9.20
2016,10,17,06,59,9.20
2016,10,17,07,00,9.20
2016,10,17,07,01,9.20
2016,10,17,07,02,9.20
2016,10,17,07,03,9.20
2016,10,17,07,04,9.20
2016,10,17,07,05,9.20
2016,10,17,07,06,9.20
2016,10,17,07,07,9.20
2016,10,17,07,08,9.20
2016,10,17,07,09,9.20
2016,10,17,07,10,9.20
2016,10,17,07,11,9.20
2016,10,17,07,12,9.20
2016,10,17,07,13,9.20
2016,10,17,07,14,9.20
2016,10,17,07,15,9.20
2016,10,17,07,16,9.20
2016,10,17,07,17,9.20
2016,10,17,07,18,9.20
2016,10,17,07,19,9.20
2016,10,17,07,20,9.20
2016,10,17,07,21,9.20
2016,10,17,07,22,9.20
2016,10,17,07,23,9.20
2016,10,17,07,24,9.20
2016,10,17,07,25,9.20
2016,10,17,07,26,9.20
2016,10,17,07,27,9.30
2016,10,17,07,28,9.30
2016,10,17,07,29,9.30
2016,10,17,07,30,9.30
2016,10,17,07,31,9.30
2016,10,17,07,32,9.30
2016,10,17,07,33,9.30
2016,10,17,07,34,9.30
2016,10,17,07,35,9.30
2016,10,17,07,36,9.30
2016,10,17,07,37,9.30
2016,10,17,07,38,9.30
2016,10,17,07,39,9.30
2016,10,17,07,40,9.30
2016,10,17,07,41,9.30
2016,10,17,07,42,9.30
2016,10,17,07,43,9.30
2016,10,17,07,44,9.30
2016,10,17,07,45,9.30
2016,10,17,07,46,9.30
2016,10,17,07,47,9.30
2016,10,17,07,48,9.30
2016,10,17,07,49,9.30
2016,10,17,07,50,9.30
2016,10,17,07,51,9.30
2016,10,17,07,52,9.30
2016,10,17,07,53,9.30
2016,10,17,07,54,9.30
2016,10,17,07,55,9.30
2016,10,17,07,56,9.30
2016,10,17,07,57,9.30
2016,10,17,07,58,9.30
2016,10,17,07,59,9.30
2016,10,17,08,00,9.30
2016,10,17,08,01,9.30
2016,10,17,08,02,9.30
2016,10,17,08,03,9.30
2016,10,17,08,04,9.30
2016,10,17,08,05,9.30
2016,10,17,08,06,9.30
2016,10,17,08,07,9.30
2016,10,17,08,08,9.30
2016,10,17,08,09,9.30
2016,10,17,08,10,9.30
2016,10,17,08,11,9.30
2016,10,17,08,12,9.30
2016,10,17,08,13,9.30
2016,10,17,08,14,9.30
2016,10,17,08,15,9.30
2016,10,17,08,16,9.30
2016,10,17,08,17,9.30
2016,10,17,08,18,9.30
2016,10,17,08,19,9.30
2016,10,17,08,20,9.30
2016,10,17,08,21,9.30
2016,10,17,08,22,9.30
2016,10,17,08,23,9.30
2016,10,17,08,24,9.30
2016,10,17,08,25,9.30
2016,10,17,08,26,9.30
2016,10,17,08,27,9.30
2016,10,17,08,28,9.30
2016,10,17,08,29,9.30
2016,10,17,08,30,9.30
2016,10,17,08,31,9.30
2016,10,17,08,32,9.30
2016,10,17,08,33,9.40
2016,10,17,08,34,9.40
2016,10,17,08,35,9.40
2016,10,17,08,36,9.40
2016,10,17,08,37,9.40
2016,10,17,08,38,9.40
2016,10,17,08,39,9.40
2016,10,17,08,40,9.40
2016,10,17,08,41,9.40
2016,10,17,08,42,9.40
2016,10,17,08,43,9.40
2016,10,17,08,44,9.40
2016,10,17,08,45,9.40
2016,10,17,08,46,9.40
2016,10,17,08,47,9.40
2016,10,17,08,48,9.40
2016,10,17,08,49,9.40
2016,10,17,08,50,9.40
2016,10,17,08,51,9.40
2016,10,17,08,52,9.40
2016,10,17,08,53,9.40
2016,10,17,08,54,9.40
2016,10,17,08,55,9.40
2016,10,17,08,56,9.40
2016,10,17,08,57,9.40
2016,10,17,08,58,9.40
2016,10,17,08,59,9.40
2016,10,17,09,00,9.40
2016,10,17,09,01,9.40
2016,10,17,09,02,9.40
2016,10,17,09,03,9.40
2016,10,17,09,04,9.40
2016,10,17,09,05,9.40
2016,10,17,09,06,9.40
2016,10,17,09,07,9.40
2016,10,17,09,08,9.40
2016,10,17,09,09,9.40
2016,10,17,09,10,9.40
2016,10,17,09,11,9.40
2016,10,17,09,12,9.40
2016,10,17,09,13,9.40
2016,10,17,09,14,9.40
2016,10,17,09,15,9.40
2016,10,17,09,16,9.40
2016,10,17,09,17,9.40
2016,10,17,09,18,9.40
2016,10,17,09,19,9.40
2016,10,17,09,20,9.40
2016,10,17,09,21,9.40
2016,10,17,09,22,9.40
2016,10,17,09,23,9.40
2016,10,17,09,24,9.40
2016,10,17,09,25,9.40
2016,10,17,09,26,9.40
2016,10,17,09,27,9.40
2016,10,17,09,28,9.40
2016,10,17,09,29,9.40
2016,10,17,09,30,9.40
2016,10,17,09,31,9.40
2016,10,17,09,32,9.40
2016,10,17,09,33,9.40
2016,10,17,09,34,9.40
2016,10,17,09,35,9.40
2016,10,17,09,36,9.40
2016,10,17,09,37,9.40
2016,10,17,09,38,9.40
2016,10,17,09,39,9.40
2016,10,17,09,40,9.40
2016,10,17,09,41,9.40
2016,10,17,09,42,9.50
2016,10,17,09,43,9.50
2016,10,17,09,44,9.50
2016,10,17,09,45,9.50
2016,10,17,09,46,9.50
2016,10,17,09,47,9.50
2016,10,17,09,48,9.50
2016,10,17,09,49,9.50
2016,10,17,09,50,9.50
2016,10,17,09,51,9.50
2016,10,17,09,52,9.50
2016,10,17,09,53,9.50
2016,10,17,09,54,9.50
2016,10,17,09,55,9.50
2016,10,17,09,56,9.50
2016,10,17,09,57,9.50
2016,10,17,09,58,9.50
2016,10,17,09,59,9.50
2016,10,17,10,00,9.50
2016,10,17,10,01,9.50
2016,10,17,10,02,9.50
2016,10,17,10,03,9.50
2016,10,17,10,04,9.50
2016,10,17,10,05,9.50
2016,10,17,10,06,9.50
2016,10,17,10,07,9.50
2016,10,17,10,08,9.50
2016,10,17,10,09,9.50
2016,10,17,10,10,9.50
2016,10,17,10,11,9.50
2016,10,17,10,12,9.50
2016,10,17,10,13,9.50
2016,10,17,10,14,9.60
2016,10,17,10,15,9.60
2016,10,17,10,16,9.60
2016,10,17,10,17,9.60
2016,10,17,10,18,9.60
2016,10,17,10,19,9.60
2016,10,17,10,20,9.60
2016,10,17,10,21,9.60
2016,10,17,10,22,9.60
2016,10,17,10,23,9.60
2016,10,17,10,24,9.60
2016,10,17,10,25,9.60
2016,10,17,10,26,9.70
2016,10,17,10,27,9.70
2016,10,17,10,28,9.70
2016,10,17,10,29,9.70
2016,10,17,10,30,9.70
2016,10,17,10,31,9.70
2016,10,17,10,32,9.70
2016,10,17,10,33,9.70
2016,10,17,10,34,9.70
2016,10,17,10,35,9.70
2016,10,17,10,36,9.70
2016,10,17,10,37,9.70
2016,10,17,10,38,9.70
2016,10,17,10,39,9.70
2016,10,17,10,40,9.70
2016,10,17,10,41,9.70
2016,10,17,10,42,9.70
2016,10,17,10,43,9.70
2016,10,17,10,44,9.70
2016,10,17,10,45,9.70
2016,10,17,10,46,9.70
2016,10,17,10,47,9.70
2016,10,17,10,48,9.70
2016,10,17,10,49,9.70
2016,10,17,10,50,9.70
2016,10,17,10,51,9.70
2016,10,17,10,52,9.70
2016,10,17,10,53,9.80
2016,10,17,10,54,9.80
2016,10,17,10,55,9.80
2016,10,17,10,56,9.80
2016,10,17,10,57,9.80
2016,10,17,10,58,9.80
2016,10,17,10,59,9.80
2016,10,17,11,00,9.80
2016,10,17,11,01,9.80
2016,10,17,11,02,9.80
2016,10,17,11,03,9.80
2016,10,17,11,04,9.80
2016,10,17,11,05,9.80
2016,10,17,11,06,9.80
2016,10,17,11,07,9.90
2016,10,17,11,08,9.90
2016,10,17,11,09,9.90
2016,10,17,11,10,9.90
2016,10,17,11,11,9.90
2016,10,17,11,12,9.90
2016,10,17,11,13,9.90
2016,10,17,11,14,9.90
2016,10,17,11,15,9.90
2016,10,17,11,16,9.90
2016,10,17,11,17,9.90
2016,10,17,11,18,9.90
2016,10,17,11,19,9.90
2016,10,17,11,20,9.90
2016,10,17,11,21,9.90
2016,10,17,11,22,10.00
2016,10,17,11,23,10.10
2016,10,17,11,24,10.10
2016,10,17,11,25,10.10
2016,10,17,11,26,10.10
2016,10,17,11,27,10.10
2016,10,17,11,28,10.10
2016,10,17,11,29,10.10
2016,10,17,11,30,10.10
2016,10,17,11,31,10.10
2016,10,17,11,32,10.10
2016,10,17,11,33,10.10
2016,10,17,11,34,10.10
2016,10,17,11,35,9.90
2016,10,17,11,36,9.90
2016,10,17,11,37,9.90
2016,10,17,11,38,10.00
2016,10,17,11,39,10.10
2016,10,17,11,40,10.10
2016,10,17,11,41,10.10
2016,10,17,11,42,10.10
2016,10,17,11,43,10.10
2016,10,17,11,44,10.10
2016,10,17,11,45,10.10
2016,10,17,11,46,10.10
2016,10,17,11,47,10.10
2016,10,17,11,48,10.10
2016,10,17,11,49,10.10
2016,10,17,11,50,10.10
2016,10,17,11,51,10.10
2016,10,17,11,52,10.10
2016,10,17,11,53,10.10
2016,10,17,11,54,10.10
2016,10,17,11,55,10.10
2016,10,17,11,56,10.10
2016,10,17,11,57,10.10
2016,10,17,11,58,10.10
2016,10,17,11,59,10.10
2016,10,17,12,00,10.10
2016,10,17,12,01,10.10
2016,10,17,12,02,10.10
2016,10,17,12,03,10.10
2016,10,17,12,04,10.10
2016,10,17,12,05,10.10
2016,10,17,12,06,10.10
2016,10,17,12,07,10.10
2016,10,17,12,08,10.10
2016,10,17,12,09,10.10
2016,10,17,12,10,10.20
2016,10,17,12,11,10.20
2016,10,17,12,12,10.10
2016,10,17,12,13,10.20
2016,10,17,12,14,10.10
2016,10,17,12,15,10.20
2016,10,17,12,16,10.10
2016,10,17,12,17,10.10
2016,10,17,12,18,10.10
2016,10,17,12,19,10.20
2016,10,17,12,20,10.20
2016,10,17,12,21,10.20
2016,10,17,12,22,10.20
2016,10,17,12,23,10.20
2016,10,17,12,24,10.10
2016,10,17,12,25,10.20
2016,10,17,12,26,10.10
2016,10,17,12,27,10.10
2016,10,17,12,28,10.10
2016,10,17,12,29,10.10
2016,10,17,12,30,10.10
2016,10,17,12,31,10.10
2016,10,17,12,32,10.10
2016,10,17,12,33,10.10
2016,10,17,12,34,10.10
2016,10,17,12,35,10.10
2016,10,17,12,36,10.10
2016,10,17,12,37,10.10
2016,10,17,12,38,10.10
2016,10,17,12,39,10.10
2016,10,17,12,40,10.10
2016,10,17,12,41,10.10
2016,10,17,12,42,10.10
2016,10,17,12,43,10.10
2016,10,17,12,44,10.10
2016,10,17,12,45,10.10
2016,10,17,12,46,10.10
2016,10,17,12,47,10.10
2016,10,17,12,48,10.10
2016,10,17,12,49,10.10
2016,10,17,12,50,10.10
2016,10,17,12,51,10.10
2016,10,17,12,52,10.10
2016,10,17,12,53,10.10
2016,10,17,12,54,10.10
2016,10,17,12,55,10.10
2016,10,17,12,56,10.10
2016,10,17,12,57,10.10
2016,10,17,12,58,10.10
2016,10,17,12,59,10.10
2016,10,17,13,00,10.10
2016,10,17,13,01,10.10
2016,10,17,13,02,10.10
2016,10,17,13,03,10.10
2016,10,17,13,04,10.10
2016,10,17,13,05,10.10
2016,10,17,13,06,10.10
2016,10,17,13,07,10.10
2016,10,17,13,08,10.10
2016,10,17,13,09,10.10
2016,10,17,13,10,10.10
2016,10,17,13,11,10.10
2016,10,17,13,12,10.10
2016,10,17,13,13,10.10
2016,10,17,13,14,10.10
2016,10,17,13,15,10.10
2016,10,17,13,16,10.10
2016,10,17,13,17,10.10
2016,10,17,13,18,10.10
2016,10,17,13,19,10.10
2016,10,17,13,20,10.10
2016,10,17,13,21,10.10
2016,10,17,13,22,10.10
2016,10,17,13,23,10.10
2016,10,17,13,24,10.10
2016,10,17,13,25,10.20
2016,10,17,13,26,10.20
2016,10,17,13,27,10.20
2016,10,17,13,28,10.20
2016,10,17,13,29,10.20
2016,10,17,13,30,10.20
2016,10,17,13,31,10.20
2016,10,17,13,32,10.20
2016,10,17,13,33,10.20
2016,10,17,13,34,10.20
2016,10,17,13,35,10.20
2016,10,17,13,36,10.30
2016,10,17,13,37,10.30
2016,10,17,13,38,10.30
2016,10,17,13,39,10.30
2016,10,17,13,40,10.30
2016,10,17,13,41,10.30
2016,10,17,13,42,10.30
2016,10,17,13,43,10.30
2016,10,17,13,44,10.30
2016,10,17,13,45,10.30
2016,10,17,13,46,10.30
2016,10,17,13,47,10.30
2016,10,17,13,48,10.30
2016,10,17,13,49,10.30
2016,10,17,13,50,10.30
2016,10,17,13,51,10.30
2016,10,17,13,52,10.20
2016,10,17,13,53,10.20
2016,10,17,13,54,10.30
2016,10,17,13,55,10.30
2016,10,17,13,56,10.30
2016,10,17,13,57,10.30
2016,10,17,13,58,10.30
2016,10,17,13,59,10.30
2016,10,17,14,00,10.30
2016,10,17,14,01,10.30
2016,10,17,14,02,10.30
2016,10,17,14,03,10.30
2016,10,17,14,04,10.30
2016,10,17,14,05,10.30
2016,10,17,14,06,10.30
2016,10,17,14,07,10.30
2016,10,17,14,08,10.30
2016,10,17,14,09,10.30
2016,10,17,14,10,10.30
2016,10,17,14,11,10.30
2016,10,17,14,12,10.30
2016,10,17,14,13,10.30
2016,10,17,14,14,10.40
2016,10,17,14,15,10.40
2016,10,17,14,16,10.40
2016,10,17,14,17,10.40
2016,10,17,14,18,10.50
2016,10,17,14,19,10.60
2016,10,17,14,20,10.60
2016,10,17,14,21,10.60
2016,10,17,14,22,10.60
2016,10,17,14,23,10.60
2016,10,17,14,24,10.60
2016,10,17,14,25,10.60
2016,10,17,14,26,10.60
2016,10,17,14,27,10.60
2016,10,17,14,28,10.60
2016,10,17,14,29,10.60
2016,10,17,14,30,10.60
2016,10,17,14,31,10.60
2016,10,17,14,32,10.60
2016,10,17,14,33,10.60
2016,10,17,14,34,10.60
2016,10,17,14,35,10.60
2016,10,17,14,36,10.60
2016,10,17,14,37,10.60
2016,10,17,14,38,10.60
2016,10,17,14,39,10.60
2016,10,17,14,40,10.60
2016,10,17,14,41,10.60
2016,10,17,14,42,10.60
2016,10,17,14,43,10.60
2016,10,17,14,44,10.60
2016,10,17,14,45,10.60
2016,10,17,14,46,10.60
2016,10,17,14,47,10.60
2016,10,17,14,48,10.60
2016,10,17,14,49,10.60
2016,10,17,14,50,10.60
2016,10,17,14,51,10.60
2016,10,17,14,52,10.60
2016,10,17,14,53,10.70
2016,10,17,14,54,10.70
2016,10,17,14,55,10.70
2016,10,17,14,56,10.70
2016,10,17,14,57,10.60
2016,10,17,14,58,10.70
2016,10,17,14,59,10.70
2016,10,17,15,00,10.70
2016,10,17,15,01,10.80
2016,10,17,15,02,10.80
2016,10,17,15,03,10.80
2016,10,17,15,04,10.80
2016,10,17,15,05,10.90
2016,10,17,15,06,10.90
2016,10,17,15,07,10.90
2016,10,17,15,08,10.90
2016,10,17,15,09,10.90
2016,10,17,15,10,10.90
2016,10,17,15,11,10.90
2016,10,17,15,12,10.90
2016,10,17,15,13,10.90
2016,10,17,15,14,10.90
2016,10,17,15,15,10.90
2016,10,17,15,16,10.90
2016,10,17,15,17,10.90
2016,10,17,15,18,10.90
2016,10,17,15,19,10.90
2016,10,17,15,20,11.00
2016,10,17,15,21,11.10
2016,10,17,15,22,11.10
2016,10,17,15,23,11.10
2016,10,17,15,24,11.10
2016,10,17,15,25,11.10
2016,10,17,15,26,11.10
2016,10,17,15,27,11.10
2016,10,17,15,28,11.10
2016,10,17,15,29,11.10
2016,10,17,15,30,11.10
2016,10,17,15,31,11.20
2016,10,17,15,32,11.20
2016,10,17,15,33,11.30
2016,10,17,15,34,11.20
2016,10,17,15,35,11.20
2016,10,17,15,36,11.20
2016,10,17,15,37,11.10
2016,10,17,15,38,11.10
2016,10,17,15,39,11.10
2016,10,17,15,40,11.10
2016,10,17,15,41,11.10
2016,10,17,15,42,11.10
2016,10,17,15,43,11.10
2016,10,17,15,44,11.10
2016,10,17,15,45,11.00
2016,10,17,15,46,11.00
2016,10,17,15,47,11.10
2016,10,17,15,48,11.10
2016,10,17,15,49,11.10
2016,10,17,15,50,11.10
2016,10,17,15,51,11.10
2016,10,17,15,52,11.10
2016,10,17,15,53,11.10
2016,10,17,15,54,11.10
2016,10,17,15,55,11.10
2016,10,17,15,56,11.10
2016,10,17,15,57,11.10
2016,10,17,15,58,11.10
2016,10,17,15,59,11.10
2016,10,17,16,00,11.10
2016,10,17,16,01,11.10
2016,10,17,16,02,11.00
2016,10,17,16,03,10.90
2016,10,17,16,04,11.00
2016,10,17,16,05,11.10
2016,10,17,16,06,11.10
2016,10,17,16,07,11.10
2016,10,17,16,08,11.00
2016,10,17,16,09,10.90
2016,10,17,16,10,10.90
2016,10,17,16,11,10.90
2016,10,17,16,12,10.90
2016,10,17,16,13,10.90
2016,10,17,16,14,10.90
2016,10,17,16,15,10.90
2016,10,17,16,16,11.00
2016,10,17,16,17,11.10
2016,10,17,16,18,11.10
2016,10,17,16,19,11.10
2016,10,17,16,20,11.10
2016,10,17,16,21,11.10
2016,10,17,16,22,11.10
2016,10,17,16,23,11.20
2016,10,17,16,24,11.20
2016,10,17,16,25,11.20
2016,10,17,16,26,11.20
2016,10,17,16,27,11.20
2016,10,17,16,28,11.20
2016,10,17,16,29,11.30
2016,10,17,16,30,11.30
2016,10,17,16,31,11.40
2016,10,17,16,32,11.40
2016,10,17,16,33,11.40
2016,10,17,16,34,11.40
2016,10,17,16,35,11.40
2016,10,17,16,36,11.30
2016,10,17,16,37,11.40
2016,10,17,16,38,11.40
2016,10,17,16,39,11.50
2016,10,17,16,40,11.60
2016,10,17,16,41,11.60
2016,10,17,16,42,11.70
2016,10,17,16,43,11.70
2016,10,17,16,44,11.80
2016,10,17,16,45,11.80
2016,10,17,16,46,11.80
2016,10,17,16,47,11.80
2016,10,17,16,48,11.70
2016,10,17,16,49,11.70
2016,10,17,16,50,11.70
2016,10,17,16,51,11.70
2016,10,17,16,52,11.70
2016,10,17,16,53,11.70
2016,10,17,16,54,11.70
2016,10,17,16,55,11.70
2016,10,17,16,56,11.70
2016,10,17,16,57,11.80
2016,10,17,16,58,11.80
2016,10,17,16,59,11.80
2016,10,17,17,00,11.80
2016,10,17,17,01,11.80
2016,10,17,17,02,11.80
2016,10,17,17,03,11.80
2016,10,17,17,04,11.80
2016,10,17,17,05,11.80
2016,10,17,17,06,11.80
2016,10,17,17,07,11.80
2016,10,17,17,08,11.80
2016,10,17,17,09,11.80
2016,10,17,17,10,11.80
2016,10,17,17,11,11.80
2016,10,17,17,12,11.80
2016,10,17,17,13,11.80
2016,10,17,17,14,11.80
2016,10,17,17,15,11.90
2016,10,17,17,16,11.90
2016,10,17,17,17,11.90
2016,10,17,17,18,12.00
2016,10,17,17,19,12.00
2016,10,17,17,20,12.00
2016,10,17,17,21,12.10
2016,10,17,17,22,12.10
2016,10,17,17,23,12.10
2016,10,17,17,24,12.10
2016,10,17,17,25,12.10
2016,10,17,17,26,12.00
2016,10,17,17,27,12.00
2016,10,17,17,28,11.90
2016,10,17,17,29,11.90
2016,10,17,17,30,11.90
2016,10,17,17,31,11.90
2016,10,17,17,32,11.80
2016,10,17,17,33,11.80
2016,10,17,17,34,11.80
2016,10,17,17,35,11.80
2016,10,17,17,36,11.80
2016,10,17,17,37,11.80
2016,10,17,17,38,11.80
2016,10,17,17,39,11.80
2016,10,17,17,40,11.80
2016,10,17,17,41,11.80
2016,10,17,17,42,11.80
2016,10,17,17,43,11.80
2016,10,17,17,44,11.80
2016,10,17,17,45,11.80
2016,10,17,17,46,11.80
2016,10,17,17,47,11.80
2016,10,17,17,48,11.80
2016,10,17,17,49,11.70